STARLINK-5922 (55925 NORAD) Tracking and Keplerian Element Data

This shows tracking and keplerian element data for the satellite.

Feedback or suggestion? Click here.




ElementValue
Catalog55925
NameSTARLINK-5922
Epoch Orbit840
Epoch Day127.25001157
Epoch Year2023
RAAN41.2182
Inclination70.0015
Eccentricity0.000321
Argument of Perigee275.4269
Mean Anonmoly71.5805
Mean Motion15.30864402
Decay Rate-0.00923382
L11 55925U 23037M 23127.25001157 -.00923382 00000+0 -33707-1 0 9996
L22 55925 70.0015 41.2182 0003210 275.4269 71.5805 15.30864402 8401



Live tracking and technical data element details for STARLINK-5922 (NORAD 55925). STARLINK-5922 can be tracked NOW for your location showing map with azimuth and elevation plus other details from your city location.







IsCatalogInMostPopularTable: catalog: 55925, numindb: 8
Update: records affected: 1



GetName: 55925 STARLINK-5922

Hit Count: updated at: Tue, 06 Jun 2023 03:02:25 GMT